SCP
0 0 0 0 0 0 0 0 -0 -0 0 0 0 0 0 0 0 0 0 0 0 0 0 0 0 0 0 0 0 0 0 0 0 0 0 0 0 0 0 0 0 0 0 0
0 0 0 0 0 0 0 0 0 0 0 0 0 0 0 0 0 0 0 0 0 0 0 0 0 0 0 0 0 0 0 0 0 0 0 0 0 0 0 0 0 0 0 0
0 0 0 0 0 0 0 0 0 0 0 0 0 0 0 0 0 0 0 0 0 0 0 0 0 0 0 0 0 0 0 0 0 0 0 0 0 0 0 0 0 0 0 0
-0 0 0 0 0 0 0 0 0 0 0 0 0 0 0 0 0 0 0 0 0 0 0 0 0 0 0 0 0 0 0 0 0 0 0 0 0 0 0 0 0 0 0 0
0 0 0 0 0 0 0 0 0 0 0 0 0 0 0 0 0 0 0 0 0 0 0 0 0 0 0 0 0 0 0 0 0 0 0 0 0 0 0 0 0 0 0 0
0 0 0 0 0 0 0 0 0 0 0 0 0 0 0 0 0 0 0 0 0 0 0 0 0 0 0 0 0 0 0 0 0 0 0 0 0 0 0 0 0 0 0 0
0 0 0 0 0 0 0 0 0 0 0 0 0 0 0 0 0 0 0 0 0 0 0 0 0 0 0 0 0 0 0 0 0 0 0 0 0 0 0 0 0 0 0 0
0 0 0 0 0 0 0 0 0 0 0 0 0 0 0 0 0 0 0 0 0 0 0 0 0 0 0 0 0 0 0 0 0 0 0 0 0 0 0 0 0 0 0 0
0 0 0 0 0 0 0 0 0 0 0 0 0 0 0 0 0 0 0 0 0 0 0 0 0 0 0 0 0 0 0 0 0 0 0 0 0 0 0 0 0 0 0 0
0 0 0 0 0 0 0 0 0 0 0 0 0 0 0 0 0 0 0 0 0 0 0 0 0 0 0 0 0 0 0 0 0 0 0 0 0 0 0 0 0 0 0 0
0 0 0 0 0 0 0 0 0 0 0 0 0 0 0 0 0 0 0 0 0 0 0 0 0 0 0 0 0 0 0 0 0 0 0 0 0 0 0 0 0 0 0 0
0 0 0 0 0 0 0 0 0 0 0 0 0 0 0 0 0 0 0 0 0 0 0 0 0 0 0 0 0 0 0 0 0 0 0 0 0 0 0 0 0 0 0 0
0 0 0 0 0 0 0 0 0 0 0 0 0 0 0 0 0 0 0 0 0 0 0 0 0 0 0 0 0 0 0 0 0 0 0 0 0 0 0 0 0 0 0 0
0 0 0 0 0 0 0 0 0 0 0 0 0 0 0 0 0 0 0 0 0 0 0 0 0 0 0 0 0 0 0 0 0 0 0 0 0 0 0 0 0 0 0 0
0 0 0 0 0 0 0 0 0 0 0 0 0 0 0 0 0 0 0 0 0 0 0 0 0 0 0 0 0 0 0 0 0 0 0 0 0 0 0 0 0 0 0 0
0 0 0 0 0 0 0 0 0 0 0 0 0 0 0 0 0 0 0 0 0 0 0 0 0 0 0 0 0 0 0 0 0 0 0 0 0 0 0 0 0 0 0 0
0 0 0 0 0 0 0 0 0 0 0 0 0 0 0 0 0 0 0 0 0 0 0 0 0 0 0 0 0 0 0 0 0 0 0 0 0 0 0 0 0 0 0 0
0 0 0 0 0 0 0 0 0 0 0 0 0 0 0 0 0 0 0 0 0 0 0 0 0 0 0 0 0 0 0 0 0 0 0 0 0 0 0 0 0 0 0 0
0 0 0 0 0 0 0 0 0 0 0 0 0 0 0 0 0 0 0 0 0 0 0 0 0 0 0 0 0 0 0 0 0 0 0 0 0 0 0 0 0 0 0 0
0 0 0 0 0 0 0 0 0 0 0 0 0 0 0 0 0 0 0 0 0 0 0 0 0 0 0 0 0 0 0 0 0 0 0 0 0 0 0 0 0 0 0 0
0 0 0 0 0 0 0 0 0 0 0 0 0 0 0 0 0 0 0 0 0 0 0 0 0 0 0 0 0 0 0 0 0 0 0 0 0 0 0 0 0 0 0 0
0 0 0 0 0 0 0 0 0 0 0 0 0 0 0 0 0 0 0 0 0 0 0 0 0 0 0 0 0 0 0 0 0 0 0 0 0 0 0 0 0 0 0 0
0 0 0 0 0 0 0 0 0 0 0 0 0 0 0 0 0 0 0 0 0 0 0 0 0 0 0 0 0 0 0 0 0 0 0 0 0 0 0 0 0 0 0 0
0 0 0 0 0 0 0 0 0 0 0 0 0 0 0 0 0 0 0 0 0 0 0 0 0 0 0 0 0 0 0 0 0 0 0 0 0 0 0 0 0 0 0 0
0 0 0 0 0 0 0 0 0 0 0 0 0 0 0 0 0 0 0 0 0 0 0 0 0 0 0 0 0 0 0 0 0 0 0 0 0 0 0 0 0 0 0 0
0 0 0 0 0 0 0 0 0 0 0 0 0 0 0 0 0 0 0 0 0 0 0 0 0 0 0 0 0 0 0 0 0 0 0 0 0 0 0 0 0 0 0 0
0 0 0 0 0 0 0 0 0 0 0 0 0 0 0 0 0 0 0 0 0 0 0 0 0 0 0 0 0 0 0 0 0 0 0 0 0 0 0 0 0 0 0 0
Wind_Speed
6 6 5 6 7 8 6 8 7 8 10 14 16 16 14 12 10 10 8 8 7 6 5 4 4 3 3 3 3 4 5 4 3 2 3 3 3 3 3 3 4 3 3 4
3 3 2 3 7 8 7 6 5 6 6 6 8 8 10 11 13 12 10 9 8 7 6 5 5 4 4 4 4 5 5 3 2 3 3 3 3 3 4 4 4 4 4 4
3 4 2 4 8 9 6 6 9 9 9 9 9 14 17 16 14 13 12 10 9 8 7 6 5 5 5 4 4 5 4 3 3 3 3 3 3 4 4 4 4 4 4 4
1 1 4 10 5 7 8 7 8 7 8 16 16 16 12 11 14 13 12 11 9 8 7 5 5 5 5 5 5 5 4 3 2 3 3 2 3 3 3 3 3 3 4 4
3 2 6 8 4 6 7 5 6 9 9 10 8 7 2 7 11 12 11 9 8 7 6 6 6 6 6 5 5 5 3 2 2 2 2 2 2 2 2 2 3 3 3 4
4 3 6 9 6 3 6 3 4 8 12 11 12 8 9 9 10 10 9 8 8 7 6 6 6 6 7 6 5 4 3 3 2 2 2 1 0 1 1 1 2 2 3 3
5 4 8 9 4 4 6 9 5 9 13 15 12 10 8 12 10 10 9 8 9 8 7 6 6 7 7 6 5 4 4 3 2 2 2 2 1 0 0 1 2 3 3 3
6 4 10 6 4 7 8 3 5 9 11 12 7 6 9 13 12 12 10 8 9 8 6 5 6 7 6 5 5 4 3 3 2 1 1 1 1 0 0 1 2 2 3 4
10 10 7 4 6 4 5 5 5 8 8 10 8 8 9 11 11 11 10 9 7 8 7 5 5 7 7 5 4 4 3 3 2 2 1 1 1 1 0 0 0 1 2 3
2 5 3 2 2 2 4 5 6 8 9 10 9 9 10 10 9 9 8 8 7 8 7 5 5 5 6 5 5 5 4 3 2 2 2 1 1 1 1 1 1 2 2 3
2 2 1 1 2 3 4 5 7 7 7 10 11 10 10 10 9 9 7 7 7 8 8 7 6 5 5 5 5 5 4 4 3 3 3 2 2 3 3 4 4 3 3 3
6 7 6 6 4 5 6 6 7 7 6 6 9 11 10 9 9 9 8 7 7 7 7 6 6 6 5 5 6 5 4 4 3 3 3 3 2 3 5 5 7 7 6 5
6 5 5 4 3 4 6 6 7 8 9 8 7 9 10 8 8 8 7 7 8 8 7 7 6 6 6 5 5 6 5 5 3 3 3 3 3 3 4 5 6 7 8 8
4 4 3 3 4 4 5 5 6 6 6 7 7 7 8 7 7 8 9 9 8 7 6 6 6 7 6 6 6 6 5 6 5 4 4 4 4 4 3 3 4 5 6 9
4 4 5 4 4 4 5 6 6 5 5 5 6 7 8 8 9 9 8 7 6 6 6 6 7 7 6 6 6 6 5 4 4 4 4 4 4 4 4 4 4 4 4 6
4 3 4 5 5 5 5 6 6 6 6 6 6 7 8 8 7 6 6 7 7 8 7 7 8 7 6 6 6 5 5 8 6 4 4 4 4 4 4 4 5 5 5 5
5 5 5 5 6 5 6 6 7 6 6 7 7 7 6 6 5 5 5 7 8 8 8 8 8 7 6 7 7 5 5 5 7 4 4 5 5 5 5 5 5 5 6 7
6 7 7 7 7 6 5 5 5 6 6 6 6 6 6 7 7 7 7 6 5 5 6 7 7 6 6 7 6 5 5 5 4 5 5 5 5 5 5 6 6 7 6 6
3 4 4 5 6 6 5 4 4 4 4 5 6 7 7 7 7 6 5 6 6 7 7 7 9 7 7 8 7 5 5 5 4 5 5 6 6 5 6 6 6 6 6 6
2 3 4 4 4 5 4 4 4 4 4 5 5 5 4 5 5 5 5 6 7 7 7 6 6 6 6 7 8 4 5 5 5 5 5 5 5 6 6 6 6 6 6 6
3 3 4 3 3 2 3 3 4 3 3 4 5 5 5 4 4 4 5 5 6 5 5 7 5 5 5 6 7 4 5 5 5 5 5 5 5 5 5 6 6 6 6 6
2 3 2 2 2 1 0 1 2 3 2 3 3 4 3 3 3 4 5 6 5 6 5 4 4 6 7 7 4 5 5 5 5 5 5 5 5 5 6 6 6 6 6 6
1 1 1 1 1 1 1 0 1 2 3 4 4 4 5 5 4 4 4 4 4 6 5 4 6 9 9 5 4 5 5 6 5 5 5 5 5 6 6 7 6 6 6 6
1 0 1 0 0 0 1 2 2 2 2 3 4 5 5 3 3 4 4 6 6 6 4 6 9 9 7 4 4 5 5 5 5 5 5 5 5 6 6 6 6 6 7 8
1 2 1 1 1 2 3 3 2 2 2 2 3 4 4 4 4 4 3 4 6 6 4 6 9 8 4 3 4 5 5 5 6 5 5 5 6 6 6 6 7 7 7 7
2 3 3 4 3 3 3 2 2 3 2 2 3 3 3 2 3 3 3 4 5 6 4 4 4 5 4 4 5 5 5 6 7 6 6 6 7 7 6 7 8 7 7 7
3 2 2 2 3 3 3 3 3 4 4 4 4 4 4 3 3 3 3 3 3 4 4 4 4 4 4 5 5 5 5 5 6 6 6 6 6 6 7 8 7 6 6 7
Wind_Direction
232 234 197 197 197 188 177 178 180 206 188 194 185 175 172 165 158 156 157 156 155 154 151 140 130 123 117 112 106 104 96 86 75 59 53 42 34 23 17 18 18 5 3 354
289 266 213 205 205 199 199 183 176 162 210 200 168 151 158 165 165 167 169 167 164 160 155 153 149 142 131 124 122 111 104 99 85 68 58 45 32 25 23 14 7 11 7 359
274 304 23 257 222 199 200 189 163 182 208 154 156 175 179 176 175 175 173 169 167 165 164 165 163 152 146 144 127 113 109 99 83 74 61 39 31 32 22 8 6 6 359 360
202 45 223 244 244 196 190 206 190 181 177 171 181 184 181 173 172 174 173 170 169 165 163 164 154 143 136 127 121 116 110 102 91 84 71 48 41 29 10 3 3 357 356 357
132 201 271 288 267 181 169 229 204 174 171 167 135 106 164 188 174 174 171 166 164 162 157 151 146 142 129 125 124 122 125 127 130 120 101 69 43 11 357 7 2 356 356 4
134 176 237 251 264 187 119 238 235 167 156 148 130 155 212 189 168 161 156 154 152 147 138 142 152 141 130 136 137 151 168 171 165 146 135 131 177 313 340 4 354 356 5 0
162 207 259 254 262 110 146 229 210 168 159 159 169 189 178 158 159 157 154 153 148 143 143 154 151 138 136 146 167 185 178 166 161 162 171 179 181 223 343 14 9 1 354 343
154 193 250 250 150 175 206 202 155 162 166 168 159 132 139 152 155 154 151 149 148 146 151 155 150 142 147 173 191 178 164 163 173 190 199 151 146 170 24 43 15 347 342 334
185 209 234 226 197 202 163 147 157 163 165 151 136 140 146 152 154 156 156 155 153 151 153 159 161 153 161 191 180 162 160 177 194 196 204 172 165 190 302 0 337 311 317 314
216 260 252 209 147 131 143 143 151 153 148 144 143 147 148 152 154 155 156 158 154 151 157 172 180 174 178 182 171 161 175 198 201 197 221 230 211 198 198 230 253 275 284 287
221 259 58 337 176 145 118 115 122 131 145 153 145 148 155 159 162 164 161 161 159 163 171 183 184 187 190 181 167 171 188 201 204 204 209 225 235 225 218 226 216 224 237 243
211 213 182 212 212 163 137 140 141 136 137 150 153 157 157 163 167 166 165 163 166 171 177 185 186 193 197 185 175 175 192 206 207 208 213 218 236 272 262 252 269 269 257 252
203 200 188 197 183 162 152 154 149 147 151 153 154 155 158 161 166 165 165 169 178 184 186 186 189 198 203 192 181 183 196 206 209 211 215 220 220 231 274 294 298 296 289 288
176 140 148 176 181 168 155 150 138 137 148 152 152 152 155 154 159 168 178 185 184 182 185 186 191 206 208 192 187 194 201 210 208 212 217 221 224 228 231 247 280 290 290 287
212 187 184 180 160 152 143 132 128 139 146 148 150 155 160 164 174 186 188 181 172 177 187 189 197 212 206 191 192 200 202 211 214 216 220 225 229 232 235 240 245 259 278 290
213 181 160 157 165 164 151 150 155 168 166 165 165 170 174 177 181 183 181 175 175 192 200 200 208 213 204 195 196 203 212 223 220 217 223 230 233 235 240 244 249 253 259 265
182 196 187 182 184 183 180 177 174 175 173 176 182 178 168 163 168 182 192 193 196 202 203 203 211 211 203 198 195 202 209 226 233 228 226 229 232 235 238 239 244 249 252 256
193 199 193 184 180 179 180 176 173 174 180 185 175 165 167 174 187 199 204 200 203 215 218 213 211 207 205 204 202 204 207 216 220 225 230 233 237 238 239 240 244 249 255 263
189 190 184 177 171 164 166 170 173 176 174 166 166 177 186 192 196 200 197 191 199 215 226 221 215 208 210 213 207 204 208 216 224 232 235 243 247 244 241 242 245 247 250 253
126 135 136 137 138 146 157 168 162 159 164 162 166 175 190 202 199 192 187 198 210 213 212 211 207 206 210 213 210 203 207 216 225 235 240 242 245 248 247 247 248 250 250 250
86 93 104 116 122 133 151 160 157 166 171 165 170 185 198 206 200 189 188 215 234 220 208 210 206 210 211 213 211 203 209 220 229 237 242 244 248 250 251 252 253 254 254 255
80 86 91 98 102 100 161 154 159 170 170 177 189 191 192 205 211 213 214 217 223 217 207 205 209 216 217 213 204 206 216 225 233 236 239 243 245 250 252 254 255 258 257 256
97 116 116 126 148 186 347 24 185 188 197 205 205 205 207 212 205 202 235 239 222 217 209 211 221 226 225 214 208 214 222 230 237 239 241 243 244 246 251 255 256 257 258 259
349 316 272 251 103 80 286 279 264 235 226 226 221 214 206 209 232 227 219 225 222 218 214 221 226 231 230 219 215 222 228 234 239 242 244 247 248 250 253 256 258 258 258 259
262 262 272 279 249 242 246 256 264 262 253 253 252 242 225 205 208 224 224 220 223 219 219 231 238 242 232 220 221 226 229 233 238 241 238 244 249 252 253 255 256 256 256 256
274 261 249 234 226 228 229 224 229 236 231 241 255 253 247 236 218 215 218 224 227 231 227 227 230 235 227 225 228 232 235 248 259 255 247 248 248 249 251 253 256 256 258 259
281 274 269 270 261 235 220 217 223 232 226 220 232 239 234 229 224 223 222 220 223 226 228 230 230 230 232 235 239 242 243 244 247 249 251 250 250 251 254 256 256 257 259 262